Regional Weather Roundup
Issued by NWS

Home | Current Version | Previous Version | Graphics & Text | Print | Product List | Glossary On
Versions: 1 2 3 4 5 6 7 8 9 10 11 12 13 14 15 16 17 18 19 20 21 22 23 24 25 26 27 28 29 30 31 32 33 34 35 36 37 38 39 40 41 42 43 44 45 46 47 48 49 50
000
ASUS45 KABQ 170801
RWRNM
NEW MEXICO REGIONAL WEATHER ROUNDUP
NATIONAL WEATHER SERVICE ALBUQUERQUE NM
100 AM MST FRI NOV 17 2017

NOTE: "FAIR" MEANS FEW OR NO CLOUDS BELOW 12,000 FEET AGL WITH NO
       SIGNIFICANT WEATHER OR OBSTRUCTIONS TO VISION.

      THIS PRODUCT IS RELEASED AS TWO VERSIONS.  ONE VERSION NEAR
      THE TOP OF THE HOUR CONTAINING PRELIMINARY DATA FROM ALBUQUERQUE
      AND OTHER STATIONS.  A FINAL VERSION WITH ADDITIONAL DATA IS
      ISSUED ABOUT 10 MINUTES AFTER THE HOUR.

NMZ501-503-504-510>518-170900-
NORTHWEST PLATEAU/NORTHCENTRAL MOUNTAINS

CITY           SKY/WX    TMP DP  RH WIND       PRES   REMARKS
FARMINGTON     FAIR      50  24  36 N3        30.01S
LOS ALAMOS     FAIR      56  25  30 S7        30.13F
SANTA FE       CLOUDY    51  28  41 CALM      30.10F
TAOS           CLOUDY    53  30  41 W18G25    30.14S
ANGEL FIRE     MOCLDY    49  24  37 W20G44    30.18R

$$
NMZ402-403-502-505>509-170900-
WESTCENTRAL MOUNTAINS/SOUTHWEST MOUNTAINS

CITY           SKY/WX    TMP DP  RH WIND       PRES   REMARKS
GALLUP         FAIR      53  23  31 SW10      30.13S
GRANTS         FAIR      47  22  36 SE10      30.16S
SILVER CITY    FAIR      46  21  37 N9        30.15S

$$
NMZ407-409-411-412-170900-
SOUTHERN DESERTS

CITY           SKY/WX    TMP DP  RH WIND       PRES   REMARKS
DEMING         FAIR      46  21  37 W6        30.10F
LAS CRUCES     FAIR      56  25  29 SW8       30.10S
HOLLOMAN AFB   FAIR      54  27  36 SE9       30.07F
ALAMOGORDO     FAIR      57  25  28 SE7       30.06F
T OR C         FAIR      60  21  22 VRB3      30.08S

$$
NMZ519>523-170900-
CENTRAL VALLEYS/CENTRAL HIGHLANDS

CITY           SKY/WX    TMP DP  RH WIND       PRES   REMARKS
ALBUQUERQUE    CLOUDY    57  25  29 S8        30.09F
MORIARTY ARPT  FAIR      63  24  22 W15G32    30.11S
CLINES CORNERS FAIR      51  23  33 W17       30.14R
BELEN          FAIR      50  23  34 SW7       30.09S
SOCORRO        FAIR      50  23  34 CALM      30.08R

$$
NMZ524>526-539-540-170900-
SOUTHCENTRAL MOUNTAINS

CITY           SKY/WX    TMP DP  RH WIND       PRES   REMARKS
RUIDOSO        FAIR      63  16  16 MISG      30.14F

$$
NMZ527>531-170900-
NORTHEAST HIGHLANDS/NORTHEAST PLAINS

CITY           SKY/WX    TMP DP  RH WIND       PRES   REMARKS
LAS VEGAS      FAIR      57  23  26 W17G28    30.04F
RATON          FAIR      58  21  24 SW15      29.94F
CLAYTON        FAIR      53  28  38 SW16      29.87F

$$
NMZ532>537-170900-
EASTCENTRAL PLAINS

CITY           SKY/WX    TMP DP  RH WIND       PRES   REMARKS
SANTA ROSA     FAIR      50  27  39 SW9       29.98F
TUCUMCARI      FAIR      52  31  44 SW12      29.89F
CANNON AFB     FAIR      53  47  79 W15       29.97F
CLOVIS AIRPORT FAIR      46  41  82 W8        29.97F

$$
NMZ028-029-538-170900-
SOUTHEAST PLAINS

CITY           SKY/WX    TMP DP  RH WIND       PRES   REMARKS
ROSWELL        FAIR      49  44  83 SE5       29.98F
ARTESIA        FAIR      50  50 100 S5        29.99S
CARLSBAD       FAIR      45  45 100 SW7       29.97F
HOBBS          FAIR      48  45  87 SW8       29.99F


$$



USA.gov is the U.S. government's official web portal to all federal, state and local government web resources and services.